Regional Weather Roundup
Issued by NWS Portland, ME

Home | Current Version | Previous Version | Text Only | Print | Product List | Glossary On
Versions: 1 2 3 4 5 6 7 8 9 10 11 12 13 14 15 16 17 18 19 20 21 22 23 24 25 26 27 28 29 30 31 32 33 34 35 36 37 38 39 40 41 42 43 44 45 46 47 48 49 50
000
ASUS41 KGYX 150610
RWRGYX
WEATHER ROUNDUP FOR MAINE AND NEW HAMPSHIRE
NATIONAL WEATHER SERVICE GRAY ME
100 AM EST SUN DEC 15 2019

MEZ002-005-006-010-012-015-018-020-021-024-026-027-029-150700-
MAINE

CITY           SKY/WX    TMP DP  RH WIND       PRES   REMARKS
PORTLAND       CLOUDY    54  46  74 SW13G25   29.05S
6HR MIN TEMP:  49; 6HR MAX TEMP:  54; 6HR PCP:  0.01;

SANFORD        CLOUDY    50  46  86 SW17G24   29.07R
BAR HARBOR     LGT RAIN  51  51 100 S25G36    29.06S FOG
WISCASSET      CLOUDY    52  49  89 SW13      29.05S
6HR MIN TEMP:  51; 6HR MAX TEMP:  53; 6HR PCP:  0.06;

ROCKLAND       CLOUDY    50  50 100 SW17G26   29.05F
FRYEBURG       MOCLDY    46  44  93 SW9G18    29.01R
6HR MIN TEMP:  39; 6HR MAX TEMP:  47; 6HR PCP:  0.10;

LEWISTONAUBURN MOCLDY    52  50  93 S13       29.00R
AUGUSTA        CLOUDY    51  51 100 S15G22    29.00F
6HR MIN TEMP:  45; 6HR MAX TEMP:  54; 6HR PCP:  0.08;

WATERVILLE     CLOUDY    54  52  94 S13G21    28.96S
BANGOR         CLOUDY    53  52  96 S17       29.00F FOG
6HR MIN TEMP:  51; 6HR MAX TEMP:  54; 6HR PCP:  0.15;

GREENVILLE       N/A     45  44  97 SE10      28.90F
6HR MIN TEMP:  40; 6HR MAX TEMP:  45; 6HR PCP:  0.17;

MILLINOCKET    FOG       51  49  92 S12G18    28.97F VSB 3/4
6HR MIN TEMP:  36; 6HR MAX TEMP:  48; 6HR PCP:  0.25;

HOULTON        RAIN      50  49  96 S14G21    28.98F FOG
6HR MIN TEMP:  39; 6HR MAX TEMP:  50; 6HR PCP:  0.08;

PRESQUE ISLE   LGT RAIN  42  41  96 S7        28.96F
6HR MIN TEMP:  35; 6HR MAX TEMP:  42; 6HR PCP:  0.09;

FRENCHVILLE    RAIN      35  35 100 SE10      28.96F FOG
6HR MIN TEMP:  34; 6HR MAX TEMP:  35; 6HR PCP:  0.16;

CARIBOU        LGT RAIN  40  39  97 E7        28.93F VSB 3/4
6HR MIN TEMP:  37; 6HR MAX TEMP:  40; 6HR PCP:  0.15;

$$

NHZ002-005-008-009-011-012-014-150700-
NEW HAMPSHIRE

CITY           SKY/WX    TMP DP  RH WIND       PRES   REMARKS
PORTSMOUTH     CLOUDY    51  43  76 SW20G28   29.09R
ROCHESTER      CLOUDY    49  44  83 MISG      29.08R
6HR MIN TEMP:  46; 6HR MAX TEMP:  52; 6HR PCP:  0.03;

NASHUA         FAIR      45  37  76 W14G24    29.20R
MANCHESTER     CLOUDY    47  37  68 W13G25    29.15R
6HR MIN TEMP:  44; 6HR MAX TEMP:  50; 6HR PCP:  0.01;

CONCORD        CLOUDY    43  34  70 W16G30    29.14R
6HR MIN TEMP:  43; 6HR MAX TEMP:  49; 6HR PCP:  0.02;

LACONIA        CLOUDY    42  35  76 SW17G24   29.10R
PLYMOUTH       FAIR      40  33  73 SW16G26   29.08R
BERLIN         CLOUDY    47  40  76 SW7       28.96R
6HR MIN TEMP:  35; 6HR MAX TEMP:  48; 6HR PCP: TRACE;

WHITEFIELD     CLOUDY    46  37  71 VRB7G20   29.00R
6HR MIN TEMP:  46; 6HR MAX TEMP:  55; 6HR PCP:  0.01;

JAFFREY        CLOUDY    39  30  70 W18G29    29.18R
6HR MIN TEMP:  39; 6HR MAX TEMP:  54; 6HR PCP:  0.01;

KEENE          CLOUDY    40  33  76 SW9G18    29.21R
LEBANON        CLOUDY    40  31  70 S15       29.13R
6HR MIN TEMP:  40; 6HR MAX TEMP:  49; 6HR PCP:  0.03;

MT WASHINGTON  FOG       27  27 100 SW52G68     N/A  VSB 1/8 WCI   6
6HR MIN TEMP:  27; 6HR MAX TEMP:  40; 6HR PCP:  0.04;

$$

VTZ005-007-008-150700-
VERMONT

CITY           SKY/WX    TMP DP  RH WIND       PRES   REMARKS
ST JOHNSBURY     N/A     43  37  79 MISG      29.00R
MONTPELIER     CLOUDY    38  29  70 SW16G28   29.09R
BURLINGTON     CLOUDY    41  31  67 W10G21    29.08R
$$

MAZ007-012-024-CTZ003-RIZ002-NYZ038-NYZ072-150700-
SOUTHERN NEW ENGLAND AND NY

CITY           SKY/WX    TMP DP  RH WIND       PRES   REMARKS
BOSTON         FAIR      53  41  63 SW21G29   29.17R
WORCESTER      CLOUDY    40  33  76 W16G33    29.20R
NANTUCKET      CLOUDY    49  45  86 SW24      29.31R
PROVIDENCE     FAIR      48  42  80 SW15G22   29.25R
HARTFORD       MOCLDY    43  33  68 W17G25    29.29R
ALBANY         CLOUDY    41  30  65 W12G21    29.31R
NEW YORK CITY  MOCLDY    45  32  60 W22G30    29.43R
$$

ANZ081-ANZ082-ANZ150-NHZ014-MEZ023>029-150700-
COASTAL MARINE OBSERVATIONS

STATION/POSITION TIME  TEMP    WIND        PRES    WAVE
                       AIR SEA DIR/SP/G            HT/PER
                 (UTC) (F)     (DEG/KT/KT) (MB)    (FT/S)
MOUNT DESERT ROC 0600          190/ 34/ 38  984.6F
ISLE OF SHOALS   0500   53     220/ 26/ 31  984.3F
JEFFREYS LEDGE   0538      47                N/A     9/ 9
CASHES LEDGE BUO 0550   50 48  210/ 25/ 31  985.6R  10/ 9
GEORGES BANK BUO 0600                       995.3
$$

.............KEY..............
   WCI - WIND CHILL
   TC  - TEMPERATURE IN CELSIUS
   VSB - VISIBILITY IN MILES
   HX  - HEAT INDEX
   FAIR- INDICATES FEW OR NO CLOUDS BELOW 12,000 FT, WITH NO
         SIGNIFICANT WEATHER AND/OR OBSTRUCTIONS TO VISIBILITY.





USA.gov is the U.S. government's official web portal to all federal, state and local government web resources and services.